Guymon, OK

11:37 PM CST on January 20, 2017 (GMT -0600)
Guymon

Weather History for KGUY - June, 2014

Change the Weather History Date:

Wednesday, June 11, 2014

  Actual Average Record
Temperature  
Mean Temperature 74 °F 73 °F  
Max Temperature 89 °F 86 °F 107 °F (2008)
Min Temperature 59 °F 60 °F 55 °F (1999)
Degree Days  
Heating Degree Days 0 0  
Month to date heating degree days 5 6  
Since 1 June heating degree days 5 6  
Since 1 July heating degree days 4537 4455  
Cooling Degree Days 9 8  
Month to date cooling degree days 91 76  
Year to date cooling degree days 269 184  
Since 1 June cooling degree days 91 76  
Growing Degree Days 24 (Base 50)    
Moisture  
Dew Point 56 °F    
Average Humidity 59    
Maximum Humidity 84    
Minimum Humidity 34    
Precipitation  
Precipitation 0.16 in 0.12 in 0.99 in (2015)
Month to date precipitation 1.64 1.33  
Year to date precipitation 5.03 7.58  
Snow  
Snow 0.00 in - - ()
Month to date snowfall 0.0  
Since 1 June snowfall 0.0  
Since 1 July snowfall 16.2  
Snow Depth 0.00 in    
Sea Level Pressure  
Sea Level Pressure 29.69 in    
Wind  
Wind Speed 13 mph (SSW)    
Max Wind Speed 30 mph    
Max Gust Speed 41 mph    
Visibility 10 miles    
Events Rain , Thunderstorm    
T = Trace of Precipitation, MM = Missing Value Source: NWS Daily Summary

Daily Weather History Graph

Daily Weather History Graph

Search for Another Location

Airport or City:

Trip Planner

Search our weather history database for the weather conditions in past years. The results will help you decide how hot, cold, wet, or windy it might be!

Date:

Astronomy

Jun. 11, 2014 Rise Set
Actual Time 6:26 AM CDT 9:04 PM CDT
Civil Twilight 5:56 AM CDT 9:35 PM CDT
Nautical Twilight 5:18 AM CDT 10:13 PM CDT
Astronomical Twilight 4:35 AM CDT 10:55 PM CDT
Moon 7:39 PM CDT (6/11) 5:15 AM CDT (6/11)
Length of Visible Light 15h 39m
Length of Day
14h 38m
Waxing Gibbous, 97% of the Moon is Illuminated
Jun 11
Waxing Gibbous
Jun 12
Full
Jun 19
Last Quarter
Jun 27
New
Jul 5
First Quarter

Hourly Weather History & Observations

Time (CDT) Temp. Heat Index Dew Point Humidity Pressure Visibility Wind Dir Wind Speed Gust Speed Precip Events Conditions
12:53 AM 64.9 °F - 55.0 °F 70% 29.78 in 10.0 mi South 6.9 mph - N/A   Clear
1:53 AM 64.0 °F - 55.9 °F 75% 29.75 in 10.0 mi South 12.7 mph - N/A   Clear
2:53 AM 66.0 °F - 55.0 °F 68% 29.74 in 10.0 mi SSW 8.1 mph - N/A   Partly Cloudy
3:53 AM 63.0 °F - 55.0 °F 75% 29.75 in 10.0 mi SSW 8.1 mph - N/A   Clear
4:53 AM 60.1 °F - 55.0 °F 83% 29.74 in 10.0 mi South 6.9 mph - N/A   Clear
5:53 AM 60.1 °F - 54.0 °F 80% 29.72 in 10.0 mi SSW 11.5 mph - N/A   Clear
6:53 AM 59.0 °F - 53.1 °F 81% 29.73 in 10.0 mi SSW 6.9 mph - N/A   Clear
7:53 AM 64.9 °F - 54.0 °F 68% 29.71 in 10.0 mi SSW 11.5 mph - N/A   Clear
8:53 AM 72.0 °F - 54.0 °F 53% 29.71 in 10.0 mi SSW 13.8 mph - N/A   Clear
9:53 AM 77.0 °F - 55.0 °F 47% 29.70 in 10.0 mi SSW 17.3 mph 25.3 mph N/A   Clear
10:53 AM 80.1 °F 80.2 °F 55.9 °F 43% 29.68 in 10.0 mi SSW 17.3 mph - N/A   Clear
11:53 AM 81.0 °F 81.0 °F 57.0 °F 44% 29.67 in 10.0 mi SSW 17.3 mph - N/A   Clear
12:53 PM 86.0 °F 84.9 °F 57.0 °F 37% 29.64 in 10.0 mi SSW 19.6 mph - N/A   Clear
1:53 PM 84.0 °F 83.0 °F 55.9 °F 38% 29.65 in 10.0 mi SSW 12.7 mph - N/A   Clear
2:53 PM 89.1 °F 88.2 °F 59.0 °F 36% 29.60 in 10.0 mi SSW 16.1 mph - N/A   Clear
4:53 PM 88.0 °F 86.5 °F 55.9 °F 34% 29.57 in 10.0 mi South 13.8 mph 21.9 mph N/A   Clear
5:53 PM 82.9 °F 83.2 °F 60.1 °F 46% 29.56 in 10.0 mi SSE 8.1 mph - N/A   Clear
6:53 PM 81.0 °F 81.7 °F 61.0 °F 50% 29.57 in 10.0 mi North 9.2 mph - N/A   Clear
7:53 PM 80.1 °F 80.7 °F 59.0 °F 48% 29.58 in 10.0 mi NNW 11.5 mph - N/A   Partly Cloudy
8:09 PM 82.0 °F - 46.9 °F 29% 29.77 in 10.0 mi NW 27.6 mph 39.1 mph 0.00 in Rain , Thunderstorm Light Thunderstorms and Rain
8:41 PM 69.1 °F - 57.0 °F 65% 29.73 in 10.0 mi NNE 23.0 mph 28.8 mph 0.16 in Rain , Thunderstorm Light Rain
8:53 PM 71.1 °F - 55.9 °F 59% 29.57 in 10.0 mi ENE 19.6 mph - 0.16 in Thunderstorm Mostly Cloudy
9:00 PM 73.9 °F - 53.1 °F 48% 29.71 in 10.0 mi NE 13.8 mph 23.0 mph N/A   Scattered Clouds
9:53 PM 72.0 °F - 55.0 °F 55% 29.60 in 10.0 mi ENE 15.0 mph 20.7 mph N/A Thunderstorm Clear
10:06 PM 73.9 °F - 53.1 °F 48% 29.75 in 10.0 mi East 13.8 mph - N/A   Clear
10:15 PM 73.0 °F - 54.0 °F 51% 29.79 in 10.0 mi North 18.4 mph 25.3 mph N/A Thunderstorm Clear
10:28 PM 72.0 °F - 55.0 °F 55% 29.83 in 10.0 mi North 21.9 mph 29.9 mph N/A   Partly Cloudy
10:53 PM 70.0 °F - 57.0 °F 63% 29.74 in 10.0 mi NNE 16.1 mph 21.9 mph 0.00 in   Clear
11:53 PM 66.9 °F - 55.9 °F 68% 29.76 in 10.0 mi North 12.7 mph - N/A   Clear